Location: Bartlett
(35.2045°N, 89.8740°W)
Time: 16:17:34
(UTC+00:00)

Transit 4A - Pass Details

Date: 23 December 2025
Orbit: 867 x 974 km, 66.8° (Epoch: 14 January)

Event Time Altitude Azimuth Distance (km) Brightness Sun altitude
Rises 06:53:10 0° 343° (NNW) 3,537 - -73.3°
Reaches altitude 10° 06:56:00 10° 354° (N) 2,610 - -72.9°
Maximum altitude 07:01:15 30° 54° (NE) 1,612 - -72.0°
Drops below altitude 10° 07:06:37 10° 114° (ESE) 2,664 - -71.1°
Sets 07:09:31 0° 125° (SE) 3,621 - -70.6°
